TimeMDT,TemperatureF,Dew PointF,Humidity,Sea Level PressureIn,VisibilityMPH,Wind Direction,Wind SpeedMPH,Gust SpeedMPH,PrecipitationIn,Events,Conditions,WindDirDegrees,DateUTC
12:15 AM,52.9,23.9,32,29.98,10.0,WNW,11.5,18.4,N/A,,Scattered Clouds,300,2013-03-21 06:15:00
12:35 AM,51.8,23.9,34,29.98,10.0,NW,9.2,17.3,N/A,,Mostly Cloudy,320,2013-03-21 06:35:00
12:55 AM,50.7,23.5,35,29.98,10.0,NNW,10.4,16.1,N/A,,Mostly Cloudy,330,2013-03-21 06:55:00
1:15 AM,50.5,23.9,35,29.97,10.0,NW,9.2,-,N/A,,Scattered Clouds,320,2013-03-21 07:15:00
1:35 AM,50.7,25.0,37,29.96,10.0,North,8.1,-,N/A,,Scattered Clouds,360,2013-03-21 07:35:00
1:55 AM,50.7,25.3,37,29.95,10.0,North,8.1,-,N/A,,Scattered Clouds,360,2013-03-21 07:55:00
2:15 AM,50.5,25.5,38,29.94,10.0,North,5.8,-,N/A,,Scattered Clouds,360,2013-03-21 08:15:00
2:35 AM,50.2,25.7,39,29.93,10.0,NNE,6.9,-,N/A,,Clear,20,2013-03-21 08:35:00
2:55 AM,49.8,26.1,40,29.92,10.0,NNE,8.1,-,N/A,,Clear,20,2013-03-21 08:55:00
3:15 AM,50.0,26.4,40,29.92,10.0,NNE,8.1,-,N/A,,Clear,30,2013-03-21 09:15:00
3:35 AM,49.1,26.4,41,29.91,10.0,North,10.4,-,N/A,,Clear,10,2013-03-21 09:35:00
3:55 AM,48.6,26.6,42,29.90,10.0,NNE,11.5,-,N/A,,Clear,20,2013-03-21 09:55:00
4:15 AM,48.4,26.4,42,29.90,10.0,WNW,8.1,-,N/A,,Clear,300,2013-03-21 10:15:00
4:35 AM,48.7,26.6,42,29.90,10.0,NNW,6.9,-,N/A,,Clear,330,2013-03-21 10:35:00
4:55 AM,49.5,26.8,41,29.89,10.0,WNW,15.0,23.0,N/A,,Scattered Clouds,290,2013-03-21 10:55:00
5:15 AM,50.5,27.5,41,29.88,10.0,West,16.1,21.9,N/A,,Mostly Cloudy,280,2013-03-21 11:15:00
5:35 AM,50.7,27.9,41,29.88,10.0,West,20.7,29.9,N/A,,Overcast,270,2013-03-21 11:35:00
5:55 AM,50.2,28.4,43,29.88,10.0,West,18.4,29.9,N/A,,Mostly Cloudy,270,2013-03-21 11:55:00
6:15 AM,50.0,28.4,43,29.88,10.0,West,18.4,26.5,N/A,,Scattered Clouds,270,2013-03-21 12:15:00
6:35 AM,49.8,28.8,44,29.89,10.0,West,16.1,26.5,N/A,,Scattered Clouds,270,2013-03-21 12:35:00
6:55 AM,49.3,28.9,45,29.89,10.0,West,18.4,25.3,N/A,,Clear,280,2013-03-21 12:55:00
7:15 AM,49.1,29.1,46,29.89,10.0,West,18.4,26.5,N/A,,Clear,280,2013-03-21 13:15:00
7:35 AM,48.7,29.1,47,29.90,10.0,WNW,13.8,19.6,N/A,,Clear,300,2013-03-21 13:35:00
7:55 AM,48.7,29.3,47,29.89,10.0,WNW,13.8,20.7,N/A,,Clear,290,2013-03-21 13:55:00
8:15 AM,49.5,29.3,46,29.89,10.0,NW,11.5,16.1,N/A,,Clear,310,2013-03-21 14:15:00
8:35 AM,51.3,29.7,44,29.89,10.0,WNW,15.0,-,N/A,,Clear,300,2013-03-21 14:35:00
8:55 AM,52.3,29.7,42,29.89,10.0,WNW,16.1,23.0,N/A,,Clear,300,2013-03-21 14:55:00
9:15 AM,53.8,29.7,40,29.89,10.0,NW,13.8,25.3,N/A,,Clear,320,2013-03-21 15:15:00
9:35 AM,55.0,29.5,38,29.89,10.0,WNW,17.3,27.6,N/A,,Clear,300,2013-03-21 15:35:00
9:55 AM,55.9,28.9,36,29.89,10.0,WNW,19.6,33.4,N/A,,Clear,300,2013-03-21 15:55:00
10:15 AM,56.7,28.4,34,29.89,10.0,WNW,23.0,35.7,N/A,,Clear,290,2013-03-21 16:15:00
10:35 AM,58.3,28.2,32,29.88,10.0,WNW,23.0,28.8,N/A,,Clear,290,2013-03-21 16:35:00
10:55 AM,58.3,28.4,32,29.88,10.0,WNW,20.7,32.2,N/A,,Clear,300,2013-03-21 16:55:00
11:15 AM,59.9,28.2,30,29.87,10.0,WNW,19.6,31.1,N/A,,Clear,300,2013-03-21 17:15:00
11:35 AM,60.3,26.4,28,29.87,10.0,WNW,19.6,27.6,N/A,,Scattered Clouds,290,2013-03-21 17:35:00
11:55 AM,61.0,24.6,25,29.86,10.0,WNW,18.4,32.2,N/A,,Scattered Clouds,290,2013-03-21 17:55:00
12:15 PM,62.6,20.8,20,29.85,10.0,West,20.7,32.2,N/A,,Clear,280,2013-03-21 18:15:00
12:35 PM,63.7,18.0,17,29.84,10.0,West,21.9,35.7,N/A,,Clear,270,2013-03-21 18:35:00
12:55 PM,64.2,14.0,14,29.84,10.0,West,26.5,34.5,N/A,,Clear,280,2013-03-21 18:55:00
1:15 PM,64.6,15.8,15,29.83,10.0,WNW,21.9,28.8,N/A,,Clear,290,2013-03-21 19:15:00
1:35 PM,65.8,13.8,13,29.82,10.0,West,23.0,35.7,N/A,,Clear,280,2013-03-21 19:35:00
1:55 PM,66.4,8.1,10,29.81,10.0,WNW,25.3,40.3,N/A,,Clear,290,2013-03-21 19:55:00
2:15 PM,67.1,9.3,11,29.80,10.0,WNW,28.8,38.0,N/A,,Clear,300,2013-03-21 20:15:00
2:35 PM,67.3,11.8,12,29.80,10.0,WNW,24.2,33.4,N/A,,Clear,300,2013-03-21 20:35:00
2:55 PM,67.3,11.1,11,29.79,7.0,WNW,19.6,48.3,N/A,,Clear,290,2013-03-21 20:55:00
3:15 PM,68.2,13.3,12,29.79,10.0,West,26.5,34.5,N/A,,Scattered Clouds,280,2013-03-21 21:15:00
3:35 PM,66.4,11.5,12,29.79,10.0,WNW,19.6,38.0,N/A,,Clear,290,2013-03-21 21:35:00
3:55 PM,68.0,11.3,11,29.78,10.0,WNW,25.3,38.0,N/A,,Scattered Clouds,290,2013-03-21 21:55:00
4:15 PM,67.1,7.7,10,29.78,10.0,NW,19.6,35.7,N/A,,Scattered Clouds,320,2013-03-21 22:15:00
4:35 PM,66.6,9.9,11,29.78,10.0,WNW,18.4,31.1,N/A,,Clear,290,2013-03-21 22:35:00
4:55 PM,66.2,10.8,12,29.78,10.0,WNW,21.9,33.4,N/A,,Clear,290,2013-03-21 22:55:00
5:15 PM,66.0,9.0,11,29.78,10.0,WNW,19.6,31.1,N/A,,Clear,300,2013-03-21 23:15:00
5:35 PM,65.7,9.9,11,29.79,10.0,West,23.0,32.2,N/A,,Clear,280,2013-03-21 23:35:00
5:55 PM,64.6,10.0,12,29.80,10.0,West,18.4,31.1,N/A,,Clear,280,2013-03-21 23:55:00
6:15 PM,64.0,8.8,11,29.80,10.0,WNW,18.4,29.9,N/A,,Scattered Clouds,290,2013-03-22 00:15:00
6:35 PM,62.8,7.7,11,29.80,10.0,WNW,21.9,27.6,N/A,,Clear,290,2013-03-22 00:35:00
6:55 PM,61.7,7.7,12,29.81,10.0,WNW,17.3,27.6,N/A,,Clear,290,2013-03-22 00:55:00
7:15 PM,60.1,7.5,12,29.82,10.0,West,10.4,18.4,N/A,,Clear,280,2013-03-22 01:15:00
7:35 PM,58.3,7.3,13,29.83,10.0,WNW,9.2,19.6,N/A,,Clear,290,2013-03-22 01:35:00
7:55 PM,54.1,6.4,15,29.83,10.0,WNW,6.9,-,N/A,,Clear,300,2013-03-22 01:55:00
8:15 PM,52.3,5.7,15,29.83,10.0,WNW,6.9,-,N/A,,Clear,290,2013-03-22 02:15:00
8:35 PM,49.1,4.8,16,29.83,10.0,WNW,5.8,-,N/A,,Clear,290,2013-03-22 02:35:00
8:55 PM,45.9,5.4,19,29.83,10.0,NW,15.0,-,N/A,,Clear,310,2013-03-22 02:55:00
9:15 PM,46.9,6.8,19,29.84,10.0,WNW,12.7,-,N/A,,Clear,290,2013-03-22 03:15:00
9:35 PM,49.1,6.8,18,29.84,10.0,West,11.5,-,N/A,,Clear,260,2013-03-22 03:35:00
9:55 PM,48.4,7.0,19,29.84,10.0,West,11.5,-,N/A,,Clear,270,2013-03-22 03:55:00
10:15 PM,44.2,6.3,21,29.85,10.0,NNW,4.6,-,N/A,,Clear,340,2013-03-22 04:15:00
10:35 PM,46.6,5.9,19,29.86,10.0,North,6.9,11.5,N/A,,Clear,360,2013-03-22 04:35:00
10:55 PM,40.8,3.9,22,29.87,10.0,NW,8.1,-,N/A,,Clear,310,2013-03-22 04:55:00
11:15 PM,40.3,3.2,21,29.87,10.0,WNW,8.1,-,N/A,,Clear,300,2013-03-22 05:15:00
11:35 PM,40.6,4.5,22,29.87,10.0,NW,5.8,-,N/A,,Clear,310,2013-03-22 05:35:00
11:55 PM,39.7,5.9,25,29.88,10.0,NNW,3.5,-,N/A,,Clear,330,2013-03-22 05:55:00